Tracking 32964 objects as of 21-Jan-2026
HD Live streaming from Space Station
objects crossing your sky now

IRIDE-MS2-HEO-6

Track IRIDE-MS2-HEO-6 now!
10-day predictions


NORAD ID: 64576
Int'l Code: 2025-135BA
Perigee: 591.2 km
Apogee: 598.3 km
Inclination: 97.8 °
Period: 96.4 minutes
Semi major axis: 6965 km
RCS: Unknown
Launch date: June 23, 2025
Source: Italy (IT)
Launch site: AIR FORCE WESTERN TEST RANGE (AFWTR)
Your satellite tracking list
Your tracking list is empty




NASA's NSSDC Master Catalog

Two Line Element Set (TLE):
1 64576U 25135BA  26020.27043852  .00010451  00000-0  10018-2 0  9998
2 64576  97.7584 136.3924 0005073  96.2451 263.9346 14.93309762 31810
Source of the keplerian elements: AFSPC